Regional Weather Roundup
Issued by NWS Burlington, VT

Home | Current Version | Previous Version | Text Only | Print | Product List | Glossary On
Versions: 1 2 3 4 5 6 7 8 9 10 11 12 13 14 15 16 17 18 19 20 21 22 23 24 25 26 27 28 29 30 31 32 33 34 35 36 37 38 39 40 41 42 43 44 45 46 47 48 49 50
000
ASUS41 KBTV 161830
RWRBTV
VERMONT REGIONAL WEATHER ROUNDUP
NATIONAL WEATHER SERVICE BURLINGTON VT
100 PM EST SAT DEC 16 2017

NOTE: "FAIR" INDICATES FEW OR NO CLOUDS BELOW 12,000 FEET WITH NO
SIGNIFICANT WEATHER AND/OR OBSTRUCTIONS TO VISIBILITY.

* THESE REPORTS ARE NOT UNDER NWS QUALITY CONTROL AND/OR DO NOT
  REPORT WEATHER SUCH AS PRECIPITATION AND FOG.

VTZ001>019-161900-
_____VERMONT_____


CITY           SKY/WX    TMP DP  RH WIND       PRES   REMARKS
BURLINGTON     FLURRIES  29  16  58 W12G21    29.85R WCI  19
6HR MIN TEMP:  21; 6HR MAX TEMP:  28; 6HR PCP: TRACE;

MONTPELIER     CLOUDY    23  14  68 W9        29.82F WCI  13
6HR MIN TEMP:   6; 6HR MAX TEMP:  23; 6HR PCP: TRACE;

MORRISVILLE    LGT SNOW  23  19  85 S8        29.81F FOG     WCI  14
6HR MIN TEMP:   9; 6HR MAX TEMP:  23; 6HR PCP: TRACE;

ST. JOHNSBURY*   N/A     22  16  78 MISG      29.79F
6HR MIN TEMP:   5; 6HR MAX TEMP:  22; 6HR PCP:  0.01;

LYNDONVILLE*   LGT SNOW  19  14  82 SE3       29.79F
6HR MIN TEMP:   3; 6HR MAX TEMP:  18;

MIDDLEBURY*    CLOUDY    25  20  80 CALM      29.85R
6HR MIN TEMP:  19; 6HR MAX TEMP:  27;

RUTLAND*       CLOUDY    27  15  61 W13       29.83F WCI  16
6HR MIN TEMP:  18; 6HR MAX TEMP:  29; 6HR PCP: TRACE;

SPRINGFIELD    CLOUDY    27  13  55 SW7       29.85F WCI  19
6HR MIN TEMP:   4; 6HR MAX TEMP:  28;

HIGHGATE*      FAIR      19  12  75 NW6       29.88R WCI  10
6HR MIN TEMP:  17; 6HR MAX TEMP:  21;

NEWPORT*       LGT SNOW  20  16  84 NW7       29.80R WCI  11
6HR MIN TEMP:   9; 6HR MAX TEMP:  23;

BENNINGTON     CLOUDY    27  15  61 W13G18    29.87F WCI  16
6HR MIN TEMP:  20; 6HR MAX TEMP:  27; 6HR PCP: TRACE;

SUTTON*          N/A     19 N/A N/A MISG        N/A
ISLAND POND*     N/A     21 N/A N/A W6          N/A  WCI  14
GALLUP MILLS*    N/A     21 N/A N/A MISG        N/A
UNION VILLAGE*   N/A     28 N/A N/A MISG        N/A
MT. MANSFIELD*   N/A     14 N/A N/A W38         N/A  WCI  -9

_____LAKE CHAMPLAIN_____


CITY           SKY/WX    TMP DP  RH WIND       PRES   REMARKS
BURTON ISLAND*   N/A     25  21  86 N5G12       N/A  WCI  19
COLCHESTER RF*   N/A     30  14  51 W25         N/A  WCI  16
DIAMOND ISL*     N/A     30  19  64 S5          N/A  WCI  25

$$

NYZ007-026>031-035-052-083-087-161900-
_____NORTHERN NEW YORK_____


CITY           SKY/WX    TMP DP  RH WIND       PRES   REMARKS
PLATTSBURGH    PTSUNNY   29  11  47 W10G22    29.85R WCI  20
6HR MIN TEMP:  14; 6HR MAX TEMP:  30;

SARANAC LAKE   MOSUNNY   19  10  68 W8G20     29.76S WCI   9
6HR MIN TEMP:  18; 6HR MAX TEMP:  20; 6HR PCP: TRACE;

MASSENA        MOSUNNY   20  10  65 W10       29.93R WCI   9
6HR MIN TEMP:  19; 6HR MAX TEMP:  23; 6HR PCP: TRACE;

OGDENSBURG*    FAIR      27  11  53 W13       29.93R WCI  16
6HR MIN TEMP:  22; 6HR MAX TEMP:  28;

POTSDAM*       MOSUNNY   19  12  73 N7        29.90R WCI  10
STARK FALLS*     N/A     21 N/A N/A W3          N/A
WATERTOWN      CLOUDY    26   7  44 NW12      29.93R WCI  16
6HR MIN TEMP:  22; 6HR MAX TEMP:  27;

FT DRUM        MOSUNNY   24   2  37 NW8       29.89R WCI  15
6HR MIN TEMP:  21; 6HR MAX TEMP:  27;

ALBANY         FLURRIES  30  19  63 W12       29.93S WCI  20
6HR MIN TEMP:  11; 6HR MAX TEMP:  31; 6HR PCP: TRACE;

GLENS FALLS    CLOUDY    28  17  63 SW15G23   29.88F WCI  16
6HR MIN TEMP:  -2; 6HR MAX TEMP:  28;


$$
NHZ002-005-011-161900-
_____NEW HAMPSHIRE_____


CITY           SKY/WX    TMP DP  RH WIND       PRES   REMARKS
LEBANON        CLOUDY    30  13  49 W12       29.82F WCI  20
6HR MIN TEMP:   0; 6HR MAX TEMP:  31; 6HR PCP: TRACE;

KEENE          CLOUDY    28  17  63 SW6       29.87F WCI  22
6HR MIN TEMP:   5; 6HR MAX TEMP:  30; 6HR PCP: TRACE;

MT WASHINGTON  SNOW       0   0 100 W39G45      N/A  VSB 0   WCI -29
6HR MIN TEMP:  -3; 6HR MAX TEMP:   8; 6HR PCP:  0.03;

PLYMOUTH       CLOUDY    28  15  58 W5        29.82F WCI  22
6HR MIN TEMP:  -1; 6HR MAX TEMP:  28;

WHITEFIELD     LGT SNOW  21  16  81 SW5       29.78F WCI  15
6HR MIN TEMP:   1; 6HR MAX TEMP:  21; 6HR PCP: TRACE;


$$

_____REGIONAL QUEBEC LOCATIONS_____


CITY           SKY/WX    TMP DP  RH WIND       PRES   REMARKS
MONTREAL       MOSUNNY   14   7  73 W6        29.89R WCI   5
QUEBEC CITY    PTSUNNY   10   1  67 VRB2      29.85R
SHERBROOKE     LGT SNOW  18  14  86 W9        29.80R WCI   6

_____REGIONAL ONTARIO LOCATIONS_____


CITY           SKY/WX    TMP DP  RH WIND       PRES   REMARKS
OTTAWA         MOSUNNY   16   7  67 W16       29.93R WCI   0

______KEY______
VSB  - VISIBILITY IN MILES
WCI  - WIND CHILL INDEX
HX   - HEAT INDEX
$$
NNNN



USA.gov is the U.S. government's official web portal to all federal, state and local government web resources and services.